{"data":{"norad_id":58998,"epoch":"2026-09-20T23:24:44.027712Z","epoch_age_seconds":114606,"freshness":"FRESH","line1":"1 58998U 24036A   26263.97550958  .00002007  00000+0  70544-4 0  9993","line2":"2 58998  53.1587 249.5494 0001437  86.4324 273.6843 15.34392591145251","mean_motion":15.34392591,"eccentricity":0.0001437,"inclination_deg":53.1587,"raan_deg":249.5494,"arg_perigee_deg":86.4324,"mean_anomaly_deg":273.6843,"bstar":7.0544e-5,"rev_number":14525,"period_min":93.848211236573,"perigee_km":461.74222949813,"apogee_km":463.70829331205,"semimajor_km":6840.8622614051,"source":"CELESTRAK","updated_at":"2026-09-21T09:00:34.022983Z"}}